Weather History for EHEH - September, 2013

Change the Weather History Date:

Tuesday, September 24, 2013

  Actual Average Record
Temperature  
Mean Temperature 60 °F -  
Max Temperature 70 °F 59 °F 75 °F (2006)
Min Temperature 49 °F 44 °F 37 °F (2003)
Degree Days  
Heating Degree Days 6    
Growing Degree Days 10 (Base 50)    
Moisture  
Dew Point 54 °F    
Average Humidity 86    
Maximum Humidity 100    
Minimum Humidity 52    
Precipitation  
Precipitation 0.00 in - - ()
Sea Level Pressure  
Sea Level Pressure 30.04 in    
Wind  
Wind Speed 2 mph ()    
Max Wind Speed 8 mph    
Max Gust Speed -    
Visibility 2.5 miles    
Events Fog    
Averages and records for this station are not official NWS values.
T = Trace of Precipitation, MM = Missing Value Source: Averaged Metar Reports

Daily Weather History Graph

Daily Weather History Graph

Search for Another Location

Airport or City:

Trip Planner

Search our weather history database for the weather conditions in past years. The results will help you decide how hot, cold, wet, or windy it might be!

Date:

Astronomy

Sep. 24, 2013 Rise Set
Actual Time 7:27 AM CEST 7:32 PM CEST
Civil Twilight 6:54 AM CEST 8:05 PM CEST
Nautical Twilight 6:15 AM CEST 8:44 PM CEST
Astronomical Twilight 5:34 AM CEST 9:24 PM CEST
Moon 10:01 PM CEST (9/24) 1:03 PM CEST (9/24)
Length of Visible Light 13h 10m
Length of Day
12h 04m
Waning Gibbous, 75% of the Moon is Illuminated
Sep 24
Waning Gibbous
Sep 27
Last Quarter
Oct 5
New
Oct 12
First Quarter
Oct 19
Full

Hourly Weather History & Observations

Time (CEST) Temp. Dew Point Humidity Pressure Visibility Wind Dir Wind Speed Gust Speed Precip Events Conditions
12:16 AM 51.8 °F 51.8 °F 100% 30.15 in 1.1 mi WNW 1.2 mph - N/A   Overcast
12:20 AM 51.8 °F 51.8 °F 100% 30.15 in 0.4 mi NW 1.2 mph - N/A Fog Fog
12:25 AM 51.8 °F 50.0 °F 94% 30.15 in 0.6 mi North 1.2 mph - N/A Fog Fog
12:31 AM 51.8 °F 51.8 °F 100% 30.15 in - North 1.2 mph - N/A Fog Fog
12:35 AM 51.8 °F 51.8 °F 100% 30.15 in 0.2 mi NNE 1.2 mph - N/A Fog Fog
12:48 AM 51.8 °F 51.8 °F 100% 30.15 in 0.6 mi Calm Calm - N/A Fog Fog
12:55 AM 51.8 °F 51.8 °F 100% 30.15 in 0.9 mi Calm Calm - N/A   Overcast
12:59 AM 51.8 °F 51.8 °F 100% 30.15 in 0.2 mi Calm Calm - N/A Fog Fog
1:10 AM 50.0 °F 50.0 °F 100% 30.15 in 0.2 mi Calm Calm - N/A Fog Fog
1:14 AM 50.0 °F 50.0 °F 100% 30.15 in 0.2 mi Calm Calm - N/A Fog Fog
1:25 AM 51.8 °F 51.8 °F 100% 30.12 in 0.2 mi WSW 1.2 mph - N/A Fog Fog
1:37 AM 51.8 °F 50.0 °F 94% 30.12 in 0.2 mi WSW 1.2 mph - N/A Fog Fog
1:55 AM 50.0 °F 50.0 °F 100% 30.12 in 0.2 mi SW 2.3 mph - N/A Fog Fog
2:00 AM 50 °F 50 °F 99% 30.15 in 0 mi SW 2.2 mph - - Fog Fog
2:25 AM 50.0 °F 50.0 °F 100% 30.12 in 0.2 mi West 1.2 mph - N/A Fog Fog
2:47 AM 50.0 °F 48.2 °F 94% 30.12 in 0.6 mi North 3.5 mph - N/A Fog Fog
2:51 AM 50.0 °F 50.0 °F 100% 30.12 in - North 3.5 mph - N/A   Mostly Cloudy
2:55 AM 50.0 °F 50.0 °F 100% 30.12 in - NNE 3.5 mph - N/A   Overcast
2:56 AM 50.0 °F 50.0 °F 100% 30.12 in 1.9 mi NNE 2.3 mph - N/A   Overcast
3:25 AM 50.0 °F 50.0 °F 100% 30.12 in 0.1 mi North 2.3 mph - N/A Fog Fog
3:38 AM 50.0 °F 50.0 °F 100% 30.12 in 0.1 mi North 1.2 mph - N/A Fog Fog
3:55 AM 50.0 °F 50.0 °F 100% 30.12 in 0.1 mi NNW 1.2 mph - N/A Fog Fog
3:56 AM 50.0 °F 50.0 °F 100% 30.12 in 0.1 mi NNW 1.2 mph - N/A Fog Fog
4:15 AM 50.0 °F 50.0 °F 100% 30.12 in 0.5 mi NNW 1.2 mph - N/A Fog Fog
4:19 AM 50.0 °F 50.0 °F 100% 30.12 in 1.2 mi Calm Calm - N/A   Overcast
4:25 AM 50.0 °F 50.0 °F 100% 30.09 in 1.5 mi Calm Calm - N/A   Overcast
4:29 AM 50.0 °F 50.0 °F 100% 30.09 in 3.1 mi Calm Calm - N/A   Overcast
4:34 AM 51.8 °F 51.8 °F 100% 30.09 in 1.9 mi North 1.2 mph - N/A   Mostly Cloudy
4:39 AM 51.8 °F 51.8 °F 100% 30.09 in - Calm Calm - N/A   Overcast
4:50 AM 51.8 °F 51.8 °F 100% 30.09 in - Calm Calm - N/A   Overcast
4:55 AM 51.8 °F 51.8 °F 100% 30.09 in - NW 1.2 mph - N/A   Overcast
4:59 AM 51.8 °F 51.8 °F 100% 30.09 in - WNW 1.2 mph - N/A   Overcast
5:00 AM 53 °F 52 °F 96% 30.12 in 2 mi Calm Calm - - Fog Fog
5:03 AM 53.6 °F 51.8 °F 94% 30.09 in - Calm Calm - N/A   Overcast
5:07 AM 53.6 °F 51.8 °F 94% 30.09 in - WSW 1.2 mph - N/A   Overcast
5:20 AM 53.6 °F 51.8 °F 94% 30.09 in - WSW 1.2 mph - N/A   Overcast
5:25 AM 53.6 °F 51.8 °F 94% 30.09 in - WSW 1.2 mph - N/A   Overcast
5:29 AM 53.6 °F 51.8 °F 94% 30.09 in - SW 1.2 mph - N/A   Overcast
5:33 AM 53.6 °F 51.8 °F 94% 30.09 in - SW 1.2 mph - N/A   Overcast
5:38 AM 53.6 °F 51.8 °F 94% 30.09 in - SW 2.3 mph - N/A   Overcast
5:40 AM 53.6 °F 51.8 °F 94% 30.09 in - SSW 2.3 mph - N/A   Overcast
5:47 AM 53.6 °F 51.8 °F 94% 30.09 in - South 1.2 mph - N/A   Overcast
5:51 AM 53.6 °F 51.8 °F 94% 30.09 in - South 1.2 mph - N/A   Mostly Cloudy
5:55 AM 53.6 °F 51.8 °F 94% 30.09 in 1.8 mi South 1.2 mph - N/A   Mostly Cloudy
5:59 AM 53.6 °F 51.8 °F 94% 30.09 in 0.6 mi South 1.2 mph - N/A Fog Fog
6:00 AM 53.6 °F 51.8 °F 94% 30.09 in 0.7 mi South 1.2 mph - N/A   Overcast
6:07 AM 53.6 °F 53.6 °F 100% 30.09 in 0.7 mi South 1.2 mph - N/A   Overcast
6:25 AM 53.6 °F 51.8 °F 94% 30.06 in 1.4 mi SW 1.2 mph - N/A   Overcast
6:29 AM 53.6 °F 51.8 °F 94% 30.06 in 1.5 mi WSW 1.2 mph - N/A   Overcast
6:38 AM 53.6 °F 51.8 °F 94% 30.06 in 1.5 mi WSW 1.2 mph - N/A   Overcast
6:46 AM 53.6 °F 51.8 °F 94% 30.06 in 0.8 mi WNW 1.2 mph - N/A   Overcast
6:50 AM 53.6 °F 53.6 °F 100% 30.06 in 0.5 mi NW 1.2 mph - N/A Fog Fog
6:55 AM 53.6 °F 53.6 °F 100% 30.06 in - NNW 1.2 mph - N/A Fog Fog
6:59 AM 53.6 °F 53.6 °F 100% 30.06 in 0.3 mi Calm Calm - N/A Fog Fog
7:13 AM 53.6 °F 53.6 °F 100% 30.06 in 0.2 mi Calm Calm - N/A Fog Fog
7:17 AM 53.6 °F 53.6 °F 100% 30.06 in 0.2 mi Calm Calm - N/A Fog Fog
7:25 AM 53.6 °F 53.6 °F 100% 30.06 in 0.1 mi South 1.2 mph - N/A Fog Fog
7:31 AM 53.6 °F 53.6 °F 100% 30.06 in 0.1 mi South 2.3 mph - N/A Fog Fog
7:55 AM 55.4 °F 55.4 °F 100% 30.06 in 0.1 mi SE 2.3 mph - N/A Fog Fog
8:00 AM 55 °F 55 °F 99% 30.08 in 0 mi SSE 2.2 mph - - Fog Fog
8:14 AM 55.4 °F 55.4 °F 100% 30.06 in 0.1 mi SSE 3.5 mph - N/A Fog Fog
8:25 AM 55.4 °F 55.4 °F 100% 30.06 in 0.1 mi SSE 3.5 mph - N/A Fog Fog
8:55 AM 55.4 °F 55.4 °F 100% 30.06 in 0.1 mi SSE 1.2 mph - N/A Fog Fog
9:02 AM 55.4 °F 55.4 °F 100% 30.06 in 0.1 mi SSE 2.3 mph - N/A Fog Fog
9:25 AM 55.4 °F 55.4 °F 100% 30.06 in 0.1 mi SSE 2.3 mph - N/A Fog Fog
9:37 AM 55.4 °F 55.4 °F 100% 30.06 in 0.1 mi South 2.3 mph - N/A Fog Fog
9:55 AM 55.4 °F 55.4 °F 100% 30.06 in 0.2 mi SSE 2.3 mph - N/A Fog Fog
10:04 AM 55.4 °F 55.4 °F 100% 30.06 in 0.3 mi South 2.3 mph - N/A Fog Fog
10:08 AM 57.2 °F 55.4 °F 94% 30.06 in 0.6 mi SSE 2.3 mph - N/A Fog Fog
10:25 AM 57.2 °F 57.2 °F 100% 30.06 in 1.5 mi South 1.2 mph - N/A   Mostly Cloudy
10:28 AM 57.2 °F 57.2 °F 100% 30.06 in - SSW 2.3 mph - N/A   Scattered Clouds
10:31 AM 59.0 °F 57.2 °F 94% 30.06 in - South 2.3 mph - N/A   Partly Cloudy
10:37 AM 59.0 °F 57.2 °F 94% 30.06 in 3.1 mi SSW 1.2 mph - N/A   Partly Cloudy
10:55 AM 59.0 °F 55.4 °F 88% 30.06 in 5.0 mi South 2.3 mph - N/A   Partly Cloudy
10:56 AM 60.8 °F 55.4 °F 82% 30.06 in 3.7 mi South 2.3 mph - N/A   Partly Cloudy
11:00 AM 60 °F 56 °F 81% 30.07 in 4 mi South 2.2 mph - - Fog Fog
11:11 AM 62.6 °F 55.4 °F 77% 30.06 in 5.0 mi South 2.3 mph - N/A   Scattered Clouds
11:15 AM 62.6 °F 55.4 °F 77% 30.06 in 4.3 mi SSE 2.3 mph - N/A   Scattered Clouds
11:25 AM 62.6 °F 55.4 °F 77% 30.04 in 5.0 mi South 1.2 mph - N/A   Haze
11:32 AM 64.4 °F 55.4 °F 73% 30.04 in 4.3 mi South 1.2 mph - N/A   Haze
11:36 AM 64.4 °F 55.4 °F 73% 30.04 in 5.0 mi South 1.2 mph - N/A   Haze
11:48 AM 64.4 °F 55.4 °F 73% 30.04 in 4.3 mi South 1.2 mph - N/A   Haze
11:55 AM 66.2 °F 55.4 °F 68% 30.04 in 5.6 mi SE 1.2 mph - N/A   Haze
12:08 PM 66.2 °F 57.2 °F 73% 30.04 in 5.6 mi South 2.3 mph - N/A   Haze
12:14 PM 66.2 °F 55.4 °F 68% 30.04 in 3.1 mi South 2.3 mph - N/A   Haze
12:25 PM 68.0 °F 55.4 °F 64% 30.04 in - ESE 2.3 mph - N/A   Haze
12:29 PM 68.0 °F 55.4 °F 64% 30.04 in 5.0 mi ESE 2.3 mph - N/A   Haze
12:32 PM 68.0 °F 55.4 °F 64% 30.04 in - SE 2.3 mph - N/A   Haze
12:34 PM 68.0 °F 53.6 °F 60% 30.04 in 4.3 mi SE 3.5 mph - N/A   Haze
12:51 PM 68.0 °F 53.6 °F 60% 30.04 in 4.3 mi ESE 4.6 mph - N/A   Haze
12:55 PM 68.0 °F 53.6 °F 60% 30.04 in 5.0 mi ESE 4.6 mph - N/A   Haze
1:03 PM 66.2 °F 53.6 °F 64% 30.04 in 5.6 mi NE 2.3 mph - N/A   Haze
1:25 PM 68.0 °F 53.6 °F 60% 30.04 in 6.2 mi North 1.2 mph - N/A   Overcast
1:55 PM 68.0 °F 53.6 °F 60% 30.04 in 6.2 mi SSW 3.5 mph - N/A   Overcast
2:00 PM 68 °F 54 °F 52% 30.03 in 6 mi SW 2.2 mph - -   Light Haze
2:25 PM 68.0 °F 53.6 °F 60% 30.01 in 5.6 mi SE 2.3 mph - N/A   Haze
2:55 PM 69.8 °F 55.4 °F 60% 30.01 in 5.0 mi NE 3.5 mph - N/A   Scattered Clouds
3:25 PM 69.8 °F 53.6 °F 56% 29.98 in 5.6 mi SE 2.3 mph - N/A   Haze
3:55 PM 69.8 °F 53.6 °F 56% 29.98 in 5.6 mi WSW 3.5 mph - N/A   Haze
4:01 PM 69.8 °F 55.4 °F 60% 29.98 in 4.3 mi West 3.5 mph - N/A   Haze
4:25 PM 69.8 °F 55.4 °F 60% 29.98 in 5.6 mi ENE 6.9 mph - N/A   Haze
4:44 PM 69.8 °F 55.4 °F 60% 29.98 in 5.0 mi ENE 3.5 mph - N/A   Haze
4:55 PM 69.8 °F 55.4 °F 60% 29.98 in 5.0 mi East 4.6 mph - N/A   Haze
5:00 PM 69 °F 56 °F 53% 29.99 in 5 mi East 2.2 mph - -   Light Haze
5:08 PM 68.0 °F 55.4 °F 64% 29.98 in 5.0 mi East 3.5 mph - N/A   Haze
5:14 PM 68.0 °F 55.4 °F 64% 29.98 in 4.3 mi East 3.5 mph - N/A   Haze
5:18 PM 68.0 °F 55.4 °F 64% 29.98 in 5.0 mi East 4.6 mph - N/A   Haze
5:25 PM 69.8 °F 57.2 °F 64% 29.98 in 4.3 mi ENE 3.5 mph - N/A   Haze
5:34 PM 68.0 °F 55.4 °F 64% 29.95 in 5.0 mi East 3.5 mph - N/A   Haze
5:38 PM 68.0 °F 55.4 °F 64% 29.95 in 4.3 mi East 2.3 mph - N/A   Haze
5:55 PM 68.0 °F 55.4 °F 64% 29.95 in 4.3 mi East 5.8 mph - N/A   Haze
5:59 PM 68.0 °F 55.4 °F 64% 29.95 in 5.0 mi ENE 6.9 mph - N/A   Haze
6:00 PM 68.0 °F 55.4 °F 64% 29.95 in 4.3 mi ENE 8.1 mph - N/A   Haze
6:03 PM 68.0 °F 55.4 °F 64% 29.95 in 4.3 mi ENE 8.1 mph - N/A   Haze
6:25 PM 66.2 °F 55.4 °F 68% 29.95 in 3.7 mi ENE 8.1 mph - N/A   Haze
6:55 PM 64.4 °F 55.4 °F 73% 29.95 in 3.7 mi NE 6.9 mph - N/A   Haze
7:25 PM 64.4 °F 55.4 °F 73% 29.95 in 3.1 mi ENE 6.9 mph - N/A   Haze
7:43 PM 62.6 °F 55.4 °F 77% 29.95 in - ENE 5.8 mph - N/A   Haze
7:46 PM 62.6 °F 55.4 °F 77% 29.95 in - ENE 5.8 mph - N/A   Haze
7:51 PM 62.6 °F 55.4 °F 77% 29.95 in 3.1 mi ENE 5.8 mph - N/A   Haze
7:55 PM 62.6 °F 55.4 °F 77% 29.95 in 3.1 mi ENE 4.6 mph - N/A   Haze
7:59 PM 62.6 °F 55.4 °F 77% 29.95 in - ENE 4.6 mph - N/A   Haze
8:00 PM 61 °F 54 °F 73% 29.97 in 3 mi NE 4.5 mph - -   Light Haze
8:03 PM 60.8 °F 55.4 °F 82% 29.95 in 3.1 mi NE 5.8 mph - N/A   Haze
8:16 PM 59.0 °F 53.6 °F 82% 29.95 in 3.1 mi NNE 4.6 mph - N/A   Haze
8:25 PM 59.0 °F 53.6 °F 82% 29.95 in - NNE 5.8 mph - N/A   Mist
8:36 PM 59.0 °F 53.6 °F 82% 29.95 in 3.1 mi NE 5.8 mph - N/A   Mist
8:40 PM 59.0 °F 55.4 °F 88% 29.95 in - NE 5.8 mph - N/A   Mist
8:55 PM 60.8 °F 55.4 °F 82% 29.95 in - ENE 5.8 mph - N/A   Mist
9:06 PM 60.8 °F 55.4 °F 82% 29.95 in 2.2 mi ENE 6.9 mph - N/A   Partly Cloudy
9:09 PM 60.8 °F 55.4 °F 82% 29.95 in 2.2 mi ENE 6.9 mph - N/A   Partly Cloudy
9:12 PM 60.8 °F 55.4 °F 82% 29.95 in - NE 6.9 mph - N/A   Partly Cloudy
9:25 PM 60.8 °F 55.4 °F 82% 29.95 in - NE 6.9 mph - N/A   Mist
9:29 PM 59.0 °F 55.4 °F 88% 29.95 in - NE 6.9 mph - N/A   Mist
9:33 PM 59.0 °F 55.4 °F 88% 29.95 in - NE 6.9 mph - N/A   Mist
9:37 PM 59.0 °F 55.4 °F 88% 29.95 in - NE 6.9 mph - N/A   Mist
9:41 PM 60.8 °F 55.4 °F 82% 29.95 in 2.2 mi NE 6.9 mph - N/A   Mist
9:55 PM 59.0 °F 55.4 °F 88% 29.95 in - NE 6.9 mph - N/A   Mist
10:25 PM 59.0 °F 55.4 °F 88% 29.98 in - ENE 5.8 mph - N/A   Mist
10:45 PM 59.0 °F 55.4 °F 88% 29.95 in - ENE 4.6 mph - N/A   Mist
10:51 PM 59.0 °F 55.4 °F 88% 29.95 in - ENE 4.6 mph - N/A   Mist
10:55 PM 59.0 °F 55.4 °F 88% 29.95 in - ENE 4.6 mph - N/A   Mist
10:59 PM 57.2 °F 55.4 °F 94% 29.95 in - NE 4.6 mph - N/A   Mist
11:00 PM 58 °F 55 °F 86% 29.98 in 2 mi NE 4.5 mph - -   Mist
11:03 PM 57.2 °F 55.4 °F 94% 29.95 in - NE 4.6 mph - N/A   Mist
11:15 PM 57.2 °F 55.4 °F 94% 29.95 in - NE 5.8 mph - N/A   Partly Cloudy
11:19 PM 57.2 °F 55.4 °F 94% 29.95 in - NE 4.6 mph - N/A   Scattered Clouds
11:25 PM 57.2 °F 53.6 °F 88% 29.95 in - NE 4.6 mph - N/A   Mostly Cloudy
11:55 PM 55.4 °F 53.6 °F 94% 29.95 in - NE 4.6 mph - N/A   Mostly Cloudy